カタログに戻る

MOLNIYA 1-62

運用中通信HEO
NORAD 15214·PAYLOAD·🇷🇺 Russia

打ち上げ Aug 24, 1984 から Plesetsk Cosmodrome

Loading…

次のパス (今後24時間)

TLE

最新Source: Space-Track

元期: Sep 12, 2026, 13:35 UTC

1 15214U 84089A   26255.56616768  .00000095  00000-0  00000-0 0  9991
2 15214  63.0260 107.5124 6990186 279.0308  14.0736  2.29640244 14447

AllMySatでMOLNIYA 1-62をリアルタイム追跡

Download on the App Store